Regional Weather Roundup
Issued by NWS

Home | Current Version | Previous Version | Graphics & Text | Print | Product List | Glossary On
Versions: 1 2 3 4 5 6 7 8 9 10 11 12 13 14 15 16 17 18 19 20 21 22 23 24 25 26 27 28 29 30 31 32 33 34 35 36 37 38 39 40 41 42 43 44 45 46 47 48 49 50
000
ASUS43 KMKX 271820
RWRWI

WISCONSIN REGIONAL WEATHER ROUNDUP
NATIONAL WEATHER SERVICE MILWAUKEE/SULLIVAN WI
1200 PM CST MON FEB 27 2017

NOTE: "FAIR" INDICATES FEW OR NO CLOUDS BELOW 12,000 FEET WITH NO
SIGNIFICANT WEATHER AND/OR OBSTRUCTIONS TO VISIBILITY.

WIZ001-002-006>008-014>016-023>028-271900-
NORTHWEST WISCONSIN

CITY           SKY/WX    TMP DP  RH WIND       PRES   REMARKS
SUPERIOR ARPT  CLOUDY    28  20  72 E5        29.99F WCI  22
6HR MIN TEMP:  17; 6HR MAX TEMP:  28;

ASHLAND        CLOUDY    29  22  75 CALM      30.00S
6HR MIN TEMP:  18; 6HR MAX TEMP:  29; 6HR PCP: TRACE;

HAYWARD        CLOUDY    36  22  56 S10       29.96F WCI  28
6HR MIN TEMP:  21; 6HR MAX TEMP:  36; 6HR PCP: TRACE;

SIREN          PTSUNNY   39  21  49 SW8       29.96F WCI  33
6HR MIN TEMP:  20; 6HR MAX TEMP:  39;

CUMBERLAND     SUNNY     37  21  52 S16       29.96F WCI  28
RICE LAKE      SUNNY     38  20  48 S13G18    30.00F WCI  30
6HR MIN TEMP:  24; 6HR MAX TEMP:  38;

CHETEK         SUNNY     36  21  55 S10       30.00F WCI  28
6HR MIN TEMP:  21; 6HR MAX TEMP:  36;

LADYSMITH      CLOUDY    38  20  48 SW14      30.01S WCI  30
6HR MIN TEMP:  21; 6HR MAX TEMP:  38;

EAU CLAIRE     SUNNY     36  20  52 S14       30.02F WCI  27
6HR MIN TEMP:  21; 6HR MAX TEMP:  36;

MENOMONIE      SUNNY     37  21  53 S6        30.03S WCI  32
6HR MIN TEMP:  17; 6HR MAX TEMP:  37;

NEW RICHMOND   SUNNY     40  17  40 SW14G20   29.98F WCI  32
6HR MIN TEMP:  22; 6HR MAX TEMP:  40;

OSCEOLA        SUNNY     43  22  44 S12       29.99F
6HR MIN TEMP:  23; 6HR MAX TEMP:  43;

$$

WIZ003>005-009-010-017-018-271900-
NORTH CENTRAL WISCONSIN

CITY           SKY/WX    TMP DP  RH WIND       PRES   REMARKS
MANITOWISH WTR CLOUDY    34  22  63 SW9G16    29.95F WCI  26
6HR MIN TEMP:  10; 6HR MAX TEMP:  34;

ARBOR VITAE    MOSUNNY   39  22  50 S20G28      N/A  WCI  30
6HR MIN TEMP:  17; 6HR MAX TEMP:  39;

WOODRUFF       MOSUNNY   39  22  50 S20G28      N/A  WCI  30
6HR MIN TEMP:  17; 6HR MAX TEMP:  39;

RHINELANDER    MOSUNNY   37  19  48 S15G22    30.00S WCI  28
EAGLE RIVER    SUNNY     37  17  45 SW15G23   29.97S WCI  28
6HR MIN TEMP:  10; 6HR MAX TEMP:  37;

LAND O LAKES   CLOUDY    34  21  58 S6        29.98F WCI  29
6HR MIN TEMP:   4; 6HR MAX TEMP:  34;

PHILLIPS       MOSUNNY   37  20  51 SW13      29.98R WCI  28
6HR MIN TEMP:  17; 6HR MAX TEMP:  37;

TOMAHAWK       SUNNY     39  17  42 SW5       30.01F
6HR MIN TEMP:  17; 6HR MAX TEMP:  39;

MEDFORD        SUNNY     32  21  63 SW12      30.02F WCI  23
6HR MIN TEMP:  19; 6HR MAX TEMP:  32;

MERRILL        NOT AVBL
$$

WIZ029-030-035-036-043>047-271900-
CENTRAL WISCONSIN

CITY           SKY/WX    TMP DP  RH WIND       PRES   REMARKS
WAUSAU         SUNNY     37  19  48 S10       30.04S WCI  30
6HR MIN TEMP:  22; 6HR MAX TEMP:  37;

MOSINEE        MOSUNNY   36  21  55 S13G20    30.06S WCI  27
MARSHFIELD     SUNNY     37  19  48 S12       30.03F WCI  29
6HR MIN TEMP:  19; 6HR MAX TEMP:  37;

STEVENS POINT  SUNNY     36  20  52 S9        30.07F WCI  29
6HR MIN TEMP:  21; 6HR MAX TEMP:  36;

WAUPACA        SUNNY     43  21  41 SE8       30.10S
6HR MIN TEMP:  18; 6HR MAX TEMP:  43;

WAUTOMA        SUNNY     41  20  43 S10       30.09F
6HR MIN TEMP:  14; 6HR MAX TEMP:  41;

WISC RAPIDS    SUNNY     39  20  46 S12G22    30.08S WCI  32
6HR MIN TEMP:  21; 6HR MAX TEMP:  39;

CAMP DOUGLAS   MOSUNNY   41  21  45 S12       30.06F
$$

WIZ011>013-019>022-031-037>040-048>050-271900-
NORTHEAST WISCONSIN

CITY           SKY/WX    TMP DP  RH WIND       PRES   REMARKS
ANTIGO         SUNNY     36  19  50 SW14      30.04F WCI  27
6HR MIN TEMP:  19; 6HR MAX TEMP:  36;

SHAWANO        SUNNY     41  20  42 S7        30.09F
6HR MIN TEMP:  23; 6HR MAX TEMP:  41;

OCONTO         SUNNY     36  23  60 S7        30.11F WCI  30
6HR MIN TEMP:  14; 6HR MAX TEMP:  36;

STURGEON BAY   SUNNY     37  23  56 S14       30.12S WCI  28
6HR MIN TEMP:  18; 6HR MAX TEMP:  37; 6HR PCP: TRACE;

GREEN BAY      SUNNY     38  25  59 S10       30.12S WCI  31
6HR MIN TEMP:  21; 6HR MAX TEMP:  38;

MANITOWOC      SUNNY     36  27  69 S13       30.15S WCI  27
6HR MIN TEMP:  17; 6HR MAX TEMP:  36; 6HR PCP: TRACE;

APPLETON       MOSUNNY   37  21  52 SE9       30.10S WCI  31
CLINTONVILLE   SUNNY     39  21  48 S7        30.09F WCI  34
OSHKOSH        MOSUNNY   37  24  59 S13       30.11S WCI  29
6HR MIN TEMP:  20; 6HR MAX TEMP:  37;

$$

WIZ032>034-041-042-053>061-271900-
SOUTHWEST WISCONSIN

CITY           SKY/WX    TMP DP  RH WIND       PRES   REMARKS
LA CROSSE      SUNNY     41  25  53 S14       30.06F
6HR MIN TEMP:  22; 6HR MAX TEMP:  41;

SPARTA         SUNNY     41  23  49 S9G18     30.07F
6HR MIN TEMP:  13; 6HR MAX TEMP:  41;

VIROQUA        SUNNY     39  25  58 S9        30.05F WCI  32
6HR MIN TEMP:  22; 6HR MAX TEMP:  39;

BOSCOBEL       MOSUNNY   44  30  57 S9        30.08F
6HR MIN TEMP:  19; 6HR MAX TEMP:  44;

PRAIRIE DU CHI SUNNY     42  30  62 CALM      30.06F
6HR MIN TEMP:  22; 6HR MAX TEMP:  42;

PLATTEVILLE    MOSUNNY   43  38  83 S14       30.08F
6HR MIN TEMP:  25; 6HR MAX TEMP:  43;

$$

WIZ056-057-062-063-064-067-068-271900-
SOUTH CENTRAL WISCONSIN

CITY           SKY/WX    TMP DP  RH WIND       PRES   REMARKS
REEDSBURG      PTSUNNY   40  27  60 S8        30.07F WCI  34
6HR MIN TEMP:  21; 6HR MAX TEMP:  39;

BARABOO/DELLS  MOSUNNY   39  26  59 S9        30.08F WCI  32
6HR MIN TEMP:  21; 6HR MAX TEMP:  39;

LONE ROCK      CLOUDY    43  28  55 CALM      30.09F
6HR MIN TEMP:  21; 6HR MAX TEMP:  43;

MINERAL POINT  MOSUNNY   43  36  75 S9        30.07F
MADISON        PTSUNNY   39  31  72 S9        30.10F WCI  33
6HR MIN TEMP:  22; 6HR MAX TEMP:  40;

MIDDLETON      CLOUDY    42  33  69 S9        30.10S
6HR MIN TEMP:  23; 6HR MAX TEMP:  42;

WATERTOWN      CLOUDY    41  31  67 S9        30.11S
6HR MIN TEMP:  21; 6HR MAX TEMP:  41;

MONROE         SUNNY     45  32  61 S17       30.09F
JANESVILLE     MOSUNNY   48  32  53 SW10      30.11F
$$

WIZ051-052-058>065-066-070>072-271900-
SOUTHEAST WISCONSIN

CITY           SKY/WX    TMP DP  RH WIND       PRES   REMARKS
MILWAUKEE      MOSUNNY   44  31  60 SE14      30.14F
6HR MIN TEMP:  23; 6HR MAX TEMP:  44;

WAUKESHA       PTSUNNY   41  28  60 S9        30.14S
MILWAUKEE/TIMM PTSUNNY   43  25  49 S10       30.14S
RACINE         CLOUDY    41  28  60 S12       30.16S
6HR MIN TEMP:  23; 6HR MAX TEMP:  41;

KENOSHA        PTSUNNY   46  32  58 SE9       30.14S
6HR MIN TEMP:  25; 6HR MAX TEMP:  46;

FOND DU LAC    PTSUNNY   39  22  50 S14       30.11S WCI  31
6HR MIN TEMP:  22; 6HR MAX TEMP:  39; 6HR PCP: TRACE;

SHEBOYGAN      SUNNY     37  26  64 S13       30.14S WCI  29
6HR MIN TEMP:  19; 6HR MAX TEMP:  37;

WEST BEND      PTSUNNY   41  27  56 SE9       30.12S
JUNEAU         CLOUDY    39  26  59 S12       30.12S WCI  32
6HR MIN TEMP:  24; 6HR MAX TEMP:  40;

$$

LSZ147-162-271900-
LAKE SUPERIOR

STATION/POSITION TIME  TEMP    WIND        PRES    WAVE
                       AIR SEA DIR/SP/G            HT/PER
                 (UTC) (F)     (DEG/KT/KT) (MB)    (FT/S)
DEVILS ISLAND    1800   24      40/  2/  3 1017.2S
PORT WING        1740   26     360/  4/  6 1016.3S
SAXON HARBOR     1740   28     360/  4/  5 1015.6S
$$

LMZ867-665-643>646-271900-
LAKE MICHIGAN

STATION/POSITION TIME  TEMP    WIND        PRES    WAVE
                       AIR SEA DIR/SP/G            HT/PER
                 (UTC) (F)     (DEG/KT/KT) (MB)    (FT/S)
CHAMBERS ISLAND  1740   37     160/  6/ 13 1019.6S
NORTHPORT PIER   1740   34     160/ 11/ 18 1020.0F
SISTER BAY       1735          170/ 13/ 15   N/A
KEWAUNEE LAKESHO 1754   34     190/ 15/ 17 1020.3S
SHEBOYGAN LAKESH 1800   36     170/ 14/ 16 1021.3R
P



USA.gov is the U.S. government's official web portal to all federal, state and local government web resources and services.